Tracking 18843 objects as of 20-November-2017
HD Live streaming from Space Station
objects crossing your sky now

FENGYUN 1C DEB

Track FENGYUN 1C DEB now!
10-day predictions


NORAD ID: 31691
Int'l Code: 1999-025CCZ
Perigee: 817.3 km
Apogee: 926.8 km
Inclination: 99.0 °
Period: 102.2 minutes
Semi major axis: 7243 km
RCS: 0.0089 m2 (small)
Launch date: May 10, 1999
Source: People's Republic of China (PRC)
Launch site: Taiyaun Space Center, China (TSC)

Note: This is SATELLITE DEBRIS
aabbcc
Your satellite tracking list
Your tracking list is empty




NASA's NSSDC Master Catalog

Two Line Element Set (TLE):
1 31691U 99025CCZ 17323.34084018 +.00001022 +00000-0 +60744-3 0  9998
2 31691 099.0494 006.6642 0075577 283.1806 076.0939 14.08382390225191
Source of the keplerian elements: AFSPC